星链-30864 (STARLINK-30864 )

导读 | 星芒AI

STARLINK-30864 是 SpaceX Starlink 卫星互联网项目中的一颗低轨卫星,属于第三代星链卫星(v1.5)。该卫星于2023年发射,运行在约540公里高度的近地轨道,旨在为全球用户提供高速、低延迟的互联网服务。它配备了先进的相控阵天线和激光通信系统,支持星间通信,提升网络效率与覆盖范围。作为星链星座的一部分,STARLINK-30864 有助于扩展 SpaceX 在全球宽带市场的影响力,并推动偏远地区互联网接入的普及。

基本信息
目录编号:
58243
目录名称:
STARLINK-30864
国际标识:
2023-171P
轨道中心:
EARTH
卫星名称:
星链-30864
卫星全名:
星链-30864 (STARLINK-30864 )
卫星状态:
在轨 (已飞行723 天)
发射日期:
2023-11-08 UTC
国别 :
美国 (US)
星等 :
--
轨道信息
数据来源 国际轨道数据
星历时间: 2025-10-31T06:47:54+0800
14小时前
查看轨道信息
半长轴: 6937.218km
偏心率: 0.0000968
轨道倾角: 43.004°
近地点辐角 273.885°
升交点赤经 270.591°
平近点角 86.188°
近地点: 558.411km
远地点: 559.755km
周期: 95.838分钟
每日圈数: 15.025358
详细信息
固有亮度:
5
最大亮度:
0.3
卫星平台:
Starlink v2.0 mini
覆盖范围:
全球
运营商:
太空探索技术公司
运营商所在国:
美国
制造商(研发单位):
太空探索技术公司
制造商所在国:
美国
使用方式:
暂无
卫星简介
星链(Starlink)计划是由太空探索技术公司(SpaceX)提出的一个巨型低轨卫星互联网星座项目,计划在2019年至2024年间在太空搭建由约1.2万颗卫星组成的“星链”网络,其中1584颗将部署在地球上空550千米处的近地轨道,并从2020年开始工作。该卫星仍在工作。
2D轨道图
3D轨道图
轨道高度分析图
轨道倾角分析图
轨道综合分析图
查看轨道综合分析图